BCS122 DNAA-DNMM

Flight info

Callsign BCS122
Flight time 0h 52m
Altitude 34000
Route IKSEM1Q IKSEM DCT VONUK UH340 ERSED ERSED1N
Aircraft A320/M-SDE3FGHIRWY/LB1

Departure

Time 2026-05-07 07:22
Airport Nnamdi Azikiwe International Airport (DNAA)

Arrival

Time 2026-05-07 08:14
Airport Murtala Muhammed International Airport (DNMM)
Time Latitude Longitude Altitude Speed Heading
2026-05-07 07:03 9.00233 7.26967 1109 ft 0 kts 326°
2026-05-07 07:12 9.00232 7.26967 1110 ft 0 kts 326°
2026-05-07 07:17 9.00233 7.26967 1110 ft 0 kts 326°
2026-05-07 07:17 9.00281 7.26930 1113 ft 14 kts 323°
2026-05-07 07:17 9.00352 7.26872 1112 ft 12 kts 311°
2026-05-07 07:18 9.00351 7.26793 1109 ft 13 kts 243°
2026-05-07 07:18 9.00352 7.26709 1112 ft 14 kts 314°
2026-05-07 07:18 9.00427 7.26661 1106 ft 12 kts 329°
2026-05-07 07:18 9.00492 7.26622 1113 ft 11 kts 330°
2026-05-07 07:19 9.00577 7.26552 1110 ft 18 kts 309°
2026-05-07 07:19 9.00657 7.26511 1107 ft 13 kts 16°
2026-05-07 07:19 9.00734 7.26563 1114 ft 17 kts 36°
2026-05-07 07:19 9.00837 7.26636 1116 ft 18 kts 33°
2026-05-07 07:20 9.00931 7.26701 1110 ft 15 kts 36°
2026-05-07 07:20 9.01006 7.26755 1118 ft 12 kts 35°
2026-05-07 07:20 9.01070 7.26795 1118 ft 10 kts 21°
2026-05-07 07:20 9.01139 7.26763 1117 ft 12 kts 293°
2026-05-07 07:21 9.01127 7.26658 1114 ft 18 kts 257°
2026-05-07 07:21 9.01080 7.26598 1116 ft 0 kts 215°
2026-05-07 07:21 9.00965 7.26518 1111 ft 59 kts 214°
2026-05-07 07:22 9.00391 7.26116 1106 ft 139 kts 214°
2026-05-07 07:22 8.99440 7.25443 1346 ft 179 kts 215°
2026-05-07 07:22 8.98417 7.24715 2250 ft 179 kts 216°
2026-05-07 07:22 8.97456 7.23910 3172 ft 182 kts 228°
2026-05-07 07:23 8.96690 7.22870 3560 ft 193 kts 236°
2026-05-07 07:23 8.95931 7.21669 3767 ft 218 kts 237°
2026-05-07 07:23 8.95082 7.20300 4064 ft 242 kts 237°
2026-05-07 07:23 8.94137 7.18799 4503 ft 261 kts 237°
2026-05-07 07:24 8.93132 7.17227 5222 ft 269 kts 237°
2026-05-07 07:24 8.92092 7.15629 5937 ft 276 kts 236°
2026-05-07 07:24 8.91012 7.13993 6608 ft 283 kts 236°
2026-05-07 07:24 8.89898 7.12315 7222 ft 291 kts 236°
2026-05-07 07:25 8.87699 7.09020 9153 ft 272 kts 236°
2026-05-07 07:25 8.86639 7.07434 9722 ft 273 kts 236°
2026-05-07 07:25 8.85556 7.05811 9907 ft 285 kts 236°
2026-05-07 07:26 8.84422 7.04111 10024 ft 298 kts 236°
2026-05-07 07:26 8.83236 7.02336 10146 ft 311 kts 235°
2026-05-07 07:26 8.82001 7.00493 10259 ft 321 kts 235°
2026-05-07 07:26 8.80719 6.98584 10477 ft 339 kts 235°
2026-05-07 07:27 8.79346 6.96538 10653 ft 360 kts 235°
2026-05-07 07:27 8.77924 6.94411 11133 ft 369 kts 235°
2026-05-07 07:27 8.76484 6.92255 11742 ft 373 kts 234°
2026-05-07 07:27 8.75026 6.90072 12390 ft 376 kts 234°
2026-05-07 07:28 8.73555 6.87870 13055 ft 379 kts 233°
2026-05-07 07:28 8.72068 6.85644 13706 ft 383 kts 233°
2026-05-07 07:28 8.70571 6.83407 14284 ft 385 kts 233°
2026-05-07 07:28 8.69066 6.81161 14934 ft 387 kts 233°
2026-05-07 07:29 8.67558 6.78910 15588 ft 387 kts 234°
2026-05-07 07:29 8.66046 6.76651 16232 ft 388 kts 234°
2026-05-07 07:29 8.64550 6.74419 16848 ft 389 kts 234°
2026-05-07 07:29 8.63031 6.72151 17462 ft 389 kts 234°
2026-05-07 07:30 8.61513 6.69883 18067 ft 390 kts 234°
2026-05-07 07:30 8.59994 6.67613 18568 ft 392 kts 234°
2026-05-07 07:30 8.58464 6.65325 19037 ft 394 kts 234°
2026-05-07 07:30 8.56922 6.63022 19480 ft 397 kts 234°
2026-05-07 07:31 8.55324 6.60735 19916 ft 400 kts 229°
2026-05-07 07:31 8.53398 6.58709 20348 ft 401 kts 220°
2026-05-07 07:31 8.51296 6.56841 20782 ft 404 kts 220°
2026-05-07 07:31 8.49177 6.54961 21216 ft 407 kts 220°
2026-05-07 07:32 8.47035 6.53060 21650 ft 410 kts 220°
2026-05-07 07:32 8.44885 6.51149 22076 ft 413 kts 220°
2026-05-07 07:32 8.42720 6.49224 22498 ft 416 kts 220°
2026-05-07 07:32 8.40559 6.47260 22917 ft 420 kts 224°
2026-05-07 07:33 8.38664 6.44998 23328 ft 425 kts 234°
2026-05-07 07:33 8.37156 6.42417 23685 ft 429 kts 241°
2026-05-07 07:33 8.35751 6.39753 24025 ft 431 kts 241°
2026-05-07 07:33 8.34352 6.37112 24363 ft 433 kts 241°
2026-05-07 07:34 8.32922 6.34425 24701 ft 435 kts 241°
2026-05-07 07:34 8.31483 6.31724 25034 ft 438 kts 241°
2026-05-07 07:34 8.30038 6.29012 25363 ft 440 kts 241°
2026-05-07 07:34 8.28588 6.26286 25685 ft 442 kts 241°
2026-05-07 07:35 8.27131 6.23544 26005 ft 444 kts 241°
2026-05-07 07:35 8.25667 6.20790 26324 ft 446 kts 241°
2026-05-07 07:35 8.24194 6.18024 26634 ft 448 kts 241°
2026-05-07 07:35 8.22715 6.15247 26934 ft 450 kts 241°
2026-05-07 07:36 8.21231 6.12458 27235 ft 452 kts 241°
2026-05-07 07:36 8.19739 6.09656 27537 ft 454 kts 241°
2026-05-07 07:36 8.18240 6.06839 27825 ft 456 kts 241°
2026-05-07 07:36 8.16737 6.04012 28113 ft 458 kts 241°
2026-05-07 07:37 8.15228 6.01172 28400 ft 460 kts 241°
2026-05-07 07:37 8.13710 5.98320 28686 ft 462 kts 241°
2026-05-07 07:37 8.12187 5.95470 28952 ft 464 kts 241°
2026-05-07 07:37 8.10650 5.92596 29216 ft 466 kts 241°
2026-05-07 07:38 8.09103 5.89700 29479 ft 468 kts 241°
2026-05-07 07:38 8.07559 5.86810 29737 ft 470 kts 241°
2026-05-07 07:38 8.06005 5.83901 29990 ft 472 kts 241°
2026-05-07 07:38 8.04448 5.80979 30212 ft 474 kts 241°
2026-05-07 07:39 8.02887 5.78049 30438 ft 475 kts 241°
2026-05-07 07:39 8.01317 5.75104 30655 ft 476 kts 241°
2026-05-07 07:39 7.99765 5.72198 30868 ft 477 kts 241°
2026-05-07 07:39 7.98191 5.69250 31063 ft 478 kts 241°
2026-05-07 07:40 7.96609 5.66290 31302 ft 478 kts 241°
2026-05-07 07:40 7.95036 5.63350 31612 ft 477 kts 241°
2026-05-07 07:40 7.93465 5.60410 31928 ft 475 kts 241°
2026-05-07 07:40 7.91898 5.57480 32251 ft 473 kts 241°
2026-05-07 07:41 7.90335 5.54561 32603 ft 471 kts 241°
2026-05-07 07:41 7.89306 5.52638 32841 ft 469 kts 241°
2026-05-07 07:41 7.87762 5.49749 33185 ft 467 kts 241°
2026-05-07 07:41 7.86225 5.46874 33540 ft 464 kts 242°
2026-05-07 07:42 7.84694 5.44014 33880 ft 463 kts 242°
2026-05-07 07:42 7.81676 5.38374 33969 ft 450 kts 242°
2026-05-07 07:43 7.78716 5.32854 33975 ft 446 kts 242°
2026-05-07 07:43 7.75766 5.27352 33975 ft 446 kts 241°
2026-05-07 07:44 7.72815 5.21858 33980 ft 447 kts 242°
2026-05-07 07:44 7.69859 5.16349 33984 ft 447 kts 242°
2026-05-07 07:45 7.66898 5.10827 33980 ft 447 kts 242°
2026-05-07 07:45 7.63964 5.05346 33977 ft 447 kts 242°
2026-05-07 07:46 7.61010 4.99837 33980 ft 447 kts 242°
2026-05-07 07:46 7.58043 4.94327 33852 ft 445 kts 241°
2026-05-07 07:46 7.56579 4.91612 33587 ft 438 kts 241°
2026-05-07 07:47 7.55133 4.88930 33331 ft 436 kts 241°
2026-05-07 07:47 7.53696 4.86258 32897 ft 432 kts 241°
2026-05-07 07:47 7.52269 4.83596 32383 ft 430 kts 241°
2026-05-07 07:47 7.50846 4.80941 31875 ft 429 kts 241°
2026-05-07 07:48 7.49435 4.78312 31374 ft 427 kts 241°
2026-05-07 07:48 7.48022 4.75683 30875 ft 426 kts 241°
2026-05-07 07:48 7.46607 4.73053 30390 ft 425 kts 241°
2026-05-07 07:48 7.45198 4.70439 29873 ft 424 kts 240°
2026-05-07 07:49 7.43794 4.67834 29391 ft 422 kts 240°
2026-05-07 07:49 7.42403 4.65256 28926 ft 418 kts 240°
2026-05-07 07:49 7.41020 4.62689 28472 ft 415 kts 240°
2026-05-07 07:49 7.39648 4.60141 28029 ft 412 kts 240°
2026-05-07 07:50 7.38285 4.57610 27575 ft 410 kts 240°
2026-05-07 07:50 7.36924 4.55081 27115 ft 408 kts 240°
2026-05-07 07:50 7.35580 4.52580 26652 ft 407 kts 240°
2026-05-07 07:50 7.34232 4.50073 26178 ft 405 kts 240°
2026-05-07 07:51 7.32896 4.47587 25703 ft 404 kts 240°
2026-05-07 07:51 7.31559 4.45098 25206 ft 404 kts 240°
2026-05-07 07:51 7.30223 4.42620 24723 ft 403 kts 240°
2026-05-07 07:51 7.28880 4.40132 24203 ft 404 kts 240°
2026-05-07 07:52 7.27538 4.37644 23696 ft 404 kts 240°
2026-05-07 07:52 7.26208 4.35178 23252 ft 400 kts 240°
2026-05-07 07:52 7.24887 4.32736 22770 ft 398 kts 240°
2026-05-07 07:52 7.23577 4.30304 22357 ft 394 kts 241°
2026-05-07 07:53 7.22594 4.27739 21879 ft 394 kts 255°
2026-05-07 07:53 7.22154 4.25023 21414 ft 393 kts 262°
2026-05-07 07:53 7.21832 4.22299 20955 ft 391 kts 262°
2026-05-07 07:53 7.21506 4.19591 20520 ft 388 kts 262°
2026-05-07 07:54 7.21177 4.16901 20098 ft 386 kts 262°
2026-05-07 07:54 7.20850 4.14224 19682 ft 384 kts 262°
2026-05-07 07:54 7.20526 4.11565 19273 ft 382 kts 262°
2026-05-07 07:54 7.20205 4.08916 18869 ft 379 kts 262°
2026-05-07 07:55 7.19887 4.06285 18474 ft 378 kts 262°
2026-05-07 07:55 7.19571 4.03669 18058 ft 376 kts 262°
2026-05-07 07:55 7.19256 4.01065 17603 ft 374 kts 262°
2026-05-07 07:55 7.18941 3.98468 17160 ft 373 kts 262°
2026-05-07 07:56 7.18626 3.95884 16729 ft 371 kts 262°
2026-05-07 07:56 7.18312 3.93308 16304 ft 370 kts 262°
2026-05-07 07:56 7.18000 3.90740 15893 ft 369 kts 262°
2026-05-07 07:56 7.17687 3.88173 15477 ft 368 kts 262°
2026-05-07 07:57 7.17376 3.85618 15069 ft 367 kts 262°
2026-05-07 07:57 7.17068 3.83068 14668 ft 366 kts 263°
2026-05-07 07:57 7.16760 3.80522 14270 ft 366 kts 263°
2026-05-07 07:57 7.16451 3.77984 13886 ft 365 kts 263°
2026-05-07 07:58 7.16147 3.75482 13483 ft 364 kts 263°
2026-05-07 07:58 7.15837 3.72931 13059 ft 362 kts 263°
2026-05-07 07:58 7.15531 3.70420 12504 ft 358 kts 263°
2026-05-07 07:58 7.15231 3.67983 11822 ft 356 kts 263°
2026-05-07 07:59 7.14932 3.65523 11185 ft 352 kts 263°
2026-05-07 07:59 7.14640 3.63106 10744 ft 341 kts 263°
2026-05-07 07:59 7.14358 3.60771 10347 ft 331 kts 263°
2026-05-07 07:59 7.13942 3.58532 9961 ft 320 kts 250°
2026-05-07 08:00 7.12958 3.56572 9551 ft 308 kts 230°
2026-05-07 08:00 7.11521 3.55051 9138 ft 297 kts 213°
2026-05-07 08:00 7.09752 3.54014 8716 ft 292 kts 197°
2026-05-07 08:00 7.07811 3.53546 8296 ft 284 kts 178°
2026-05-07 08:01 7.05886 3.53791 7896 ft 276 kts 156°
2026-05-07 08:01 7.04275 3.54712 7725 ft 263 kts 135°
2026-05-07 08:01 7.03060 3.56065 7614 ft 261 kts 127°
2026-05-07 08:01 7.01904 3.57482 7495 ft 261 kts 126°
2026-05-07 08:02 7.00756 3.58893 7378 ft 261 kts 128°
2026-05-07 08:02 6.99402 3.60119 7260 ft 264 kts 143°
2026-05-07 08:02 6.97826 3.61068 7143 ft 265 kts 146°
2026-05-07 08:02 6.96239 3.62013 7033 ft 265 kts 146°
2026-05-07 08:03 6.94654 3.62959 6908 ft 265 kts 146°
2026-05-07 08:03 6.93072 3.63906 6793 ft 265 kts 148°
2026-05-07 08:03 6.91367 3.64617 6677 ft 268 kts 163°
2026-05-07 08:03 6.89534 3.64981 6559 ft 269 kts 167°
2026-05-07 08:04 6.87697 3.65320 6444 ft 269 kts 170°
2026-05-07 08:04 6.85837 3.65180 6327 ft 272 kts 196°
2026-05-07 08:04 6.84211 3.64223 6199 ft 275 kts 223°
2026-05-07 08:04 6.83170 3.62643 6076 ft 277 kts 250°
2026-05-07 08:05 6.82880 3.60743 5962 ft 277 kts 269°
2026-05-07 08:05 6.82850 3.58804 5837 ft 277 kts 269°
2026-05-07 08:05 6.82827 3.56870 5718 ft 276 kts 269°
2026-05-07 08:05 6.82806 3.54944 5594 ft 275 kts 269°
2026-05-07 08:06 6.82782 3.53029 5477 ft 273 kts 269°
2026-05-07 08:06 6.82755 3.51124 5355 ft 272 kts 268°
2026-05-07 08:06 6.82727 3.49227 5168 ft 270 kts 268°
2026-05-07 08:06 6.82699 3.47347 4863 ft 267 kts 268°
2026-05-07 08:07 6.82671 3.45488 4535 ft 264 kts 268°
2026-05-07 08:07 6.82642 3.43649 4212 ft 262 kts 268°
2026-05-07 08:07 6.82612 3.41824 3889 ft 260 kts 268°
2026-05-07 08:07 6.82585 3.40014 3580 ft 258 kts 268°
2026-05-07 08:08 6.82558 3.38221 3496 ft 256 kts 268°
2026-05-07 08:08 6.82531 3.36432 3490 ft 252 kts 268°
2026-05-07 08:08 6.82507 3.34753 3493 ft 235 kts 268°
2026-05-07 08:08 6.82466 3.33127 3493 ft 231 kts 261°
2026-05-07 08:09 6.81853 3.31705 3500 ft 217 kts 223°
2026-05-07 08:09 6.80604 3.31016 3419 ft 202 kts 188°
2026-05-07 08:09 6.79210 3.31033 3332 ft 200 kts 178°
2026-05-07 08:09 6.77821 3.31074 3247 ft 200 kts 180°
2026-05-07 08:10 6.76434 3.31087 3151 ft 199 kts 180°
2026-05-07 08:10 6.75050 3.31097 3059 ft 199 kts 180°
2026-05-07 08:10 6.73670 3.31110 2970 ft 198 kts 180°
2026-05-07 08:10 6.72285 3.31125 2678 ft 199 kts 180°
2026-05-07 08:11 6.70900 3.31143 2410 ft 199 kts 180°
2026-05-07 08:11 6.69527 3.31162 2169 ft 191 kts 180°
2026-05-07 08:11 6.68237 3.31179 1899 ft 181 kts 180°
2026-05-07 08:11 6.67031 3.31196 1677 ft 164 kts 179°
2026-05-07 08:12 6.65947 3.31212 1467 ft 150 kts 180°
2026-05-07 08:12 6.64933 3.31227 1268 ft 143 kts 180°
2026-05-07 08:12 6.63941 3.31242 1080 ft 142 kts 180°
2026-05-07 08:12 6.62959 3.31257 904 ft 140 kts 180°
2026-05-07 08:13 6.61984 3.31273 725 ft 141 kts 179°
2026-05-07 08:13 6.61007 3.31288 539 ft 140 kts 179°
2026-05-07 08:13 6.60026 3.31306 385 ft 143 kts 179°
2026-05-07 08:13 6.59040 3.31316 164 ft 141 kts 180°
2026-05-07 08:14 6.58091 3.31327 73 ft 127 kts 180°
2026-05-07 08:14 6.57366 3.31335 66 ft 80 kts 179°
2026-05-07 08:14 6.56922 3.31339 67 ft 56 kts 179°
2026-05-07 08:14 6.56609 3.31359 67 ft 38 kts 166°
2026-05-07 08:15 6.56423 3.31452 60 ft 20 kts 136°
2026-05-07 08:15 6.56461 3.31547 65 ft 16 kts
2026-05-07 08:15 6.56526 3.31547 66 ft 8 kts 359°
2026-05-07 08:15 6.56575 3.31546 66 ft 6 kts 359°
2026-05-07 08:16 6.56617 3.31546 66 ft 8 kts 359°
2026-05-07 08:16 6.56713 3.31545 66 ft 14 kts 360°
2026-05-07 08:16 6.56805 3.31546 67 ft 12 kts
2026-05-07 08:16 6.56857 3.31596 65 ft 10 kts 79°
2026-05-07 08:17 6.56860 3.31661 68 ft 9 kts 83°
2026-05-07 08:17 6.56882 3.31718 65 ft 8 kts 73°
2026-05-07 08:17 6.56883 3.31763 70 ft 5 kts 90°
2026-05-07 08:17 6.56883 3.31784 70 ft 0 kts 90°